This demonstration page uses our WeatherBlox Daily Observations layout. Learn more.

Left ArrowRight Arrow

34.02893, -84.19858

Hourly Observations for June 17, 2020

Temp ( °F °C ) Dew Point ( °F °C ) Humidity (%) Winds ( mph kmh ) Pressure ( in mb ) Visibility ( mi km ) Precip ( " mm )
12:53 am 00:53 Cloudy 61 16.1 55 12.8 81 81 VRB 5 7 30.15 1021 10 16 0.00 0.00
1:53 am 01:53 Cloudy 60 15.6 54 12.2 80 80 VRB 3 6 30.14 1021 10 16 0.00 0.00
2:53 am 02:53 Cloudy 60 15.6 54 12.2 80 80 Calm 30.12 1020 10 16 0.00 0.00
3:53 am 03:53 Cloudy 60 15.6 55 12.8 84 84 Calm 30.11 1020 10 16 0.00 0.00
4:53 am 04:53 Cloudy 59 15 55 12.8 87 87 Calm 30.10 1019 10 16 0.00 0.00
5:53 am 05:53 Cloudy 59 15 55 12.8 87 87 Calm 30.11 1020 10 16 0.00 0.00
6:53 am 06:53 Mostly Cloudy 58 14.4 56 13.3 93 93 SW 3 6 30.12 1020 10 16 0.00 0.00
7:53 am 07:53 Cloudy 60 15.6 56 13.3 86 86 SSW 3 6 30.13 1020 10 16 0.00 0.00
8:53 am 08:53 Cloudy 62 16.7 55 12.8 78 78 Calm 30.13 1020 10 16 0.00 0.00
9:53 am 09:53 Cloudy 62 16.7 55 12.8 78 78 W 5 7 30.14 1021 10 16 0.00 0.00
10:53 am 10:53 Cloudy 63 17.2 57 13.9 81 81 WNW 3 6 30.14 1021 10 16 0.00 0.00
11:53 am 11:53 Cloudy 65 18.3 57 13.9 76 76 WSW 5 7 30.13 1020 10 16 0.00 0.00
12:53 pm 12:53 Cloudy 69 20.6 58 14.4 68 68 W 8 13 30.11 1020 10 16 0.00 0.00
1:29 pm 13:29 Cloudy 69 20.6 58 14.4 68 68 WNW 8 13 30.10 1019 10 16 0.00 0.00
1:53 pm 13:53 Cloudy 70 21.1 58 14.4 66 66 W 7 11 30.09 1019 10 16 0.00 0.00
2:53 pm 14:53 Cloudy 70 21.1 58 14.4 66 66 W 7 11 30.07 1018 10 16 0.00 0.00
3:53 pm 15:53 Cloudy 72 22.2 59 15 64 64 W 7 11 30.06 1018 10 16 0.00 0.00
4:53 pm 16:53 Cloudy 74 23.3 59 15 60 60 NW 8 13 30.05 1018 10 16 0.00 0.00
5:53 pm 17:53 Mostly Sunny 75 23.9 58 14.4 55 55 NW 9 15 30.04 1017 10 16 0.00 0.00
6:53 pm 18:53 Partly Cloudy 74 23.3 59 15 60 60 NNW 10 17 30.03 1017 10 16 0.00 0.00
7:53 pm 19:53 Partly Cloudy 72 22.2 59 15 64 64 NNW 5 7 30.02 1017 10 16 0.00 0.00
8:53 pm 20:53 Partly Cloudy 70 21.1 58 14.4 66 66 NNW 8 13 30.03 1017 10 16 0.00 0.00
9:53 pm 21:53 Clear 65 18.3 59 15 81 81 Calm 30.04 1017 10 16 0.00 0.00
10:53 pm 22:53 Clear 63 17.2 59 15 87 87 Calm 30.05 1018 10 16 0.00 0.00
11:53 pm 23:53 Clear 61 16.1 60 15.6 97 97 Calm 30.06 1018 10 16 0.00 0.00

Powered by AerisWeather